CW0214 Weather Reports


time (UTC)temp
C
wind
direction
speed
KPH
gust
KPH
rain 1hr
cm
rain 24hr
cm
rain mn
cm
humidity
%
barometer
mb
20260503004905 14 97 0.0 3.2 0.00 0.00 0.00 89 1016.3
20260503004404 14 97 0.0 0.0 0.00 0.00 0.00 88 1016.3
20260503003905 14 97 0.0 0.0 0.00 0.00 0.00 89 1016.4
20260503003405 14 97 0.0 0.0 0.00 0.00 0.00 88 1016.4
20260503002905 14 97 0.0 0.0 0.00 0.00 0.00 89 1016.5
20260503002406 14 97 0.0 1.6 0.00 0.00 0.00 88 1016.5
20260503001905 14 97 0.0 3.2 0.00 0.00 0.00 88 1016.5
20260503000905 14 97 0.0 0.0 0.00 0.00 0.00 88 1016.5
20260503000404 14 97 0.0 0.0 0.00 0.00 0.00 88 1016.6
20260502235906 14 97 0.0 0.0 0.00 0.00 0.00 88 1016.6
20260502234904 15 97 1.6 4.8 0.00 0.00 0.00 87 1016.7
20260502233905 15 97 0.0 4.8 0.00 0.00 0.00 87 1016.8
20260502233405 15 97 1.6 4.8 0.00 0.00 0.00 87 1016.8
20260502232905 15 97 1.6 4.8 0.00 0.00 0.00 86 1016.8
20260502232404 15 98 3.2 11.3 0.00 0.00 0.00 86 1016.8
20260502231905 15 84 1.6 8.0 0.00 0.00 0.00 85 1016.8
20260502231405 15 72 4.8 9.7 0.00 0.00 0.00 85 1016.7
20260502230904 15 104 3.2 12.9 0.00 0.00 0.00 85 1016.7
20260502225905 15 102 1.6 8.0 0.00 0.00 0.00 84 1016.8
20260502225405 15 102 8.0 14.5 0.00 0.00 0.00 84 1016.8
20260502224905 15 101 8.0 16.1 0.00 0.00 0.00 83 1016.7
20260502223407 16 116 4.8 16.1 0.00 0.00 0.00 83 1016.8
20260502222404 16 95 3.2 11.3 0.00 0.00 0.00 83 1016.7
20260502221905 16 99 4.8 11.3 0.00 0.00 0.00 83 1016.7
20260502221405 16 113 4.8 9.7 0.00 0.00 0.00 83 1016.7
20260502220404 16 107 1.6 8.0 0.00 0.00 0.00 83 1016.7
20260502215904 16 117 1.6 9.7 0.00 0.00 0.00 84 1016.7
20260502215404 16 132 1.6 11.3 0.00 0.00 0.00 84 1016.7
20260502214905 16 94 3.2 12.9 0.00 0.00 0.00 85 1016.7
20260502213905 16 61 3.2 16.1 0.00 0.00 0.00 86 1016.6
20260502213405 16 94 8.0 14.5 0.00 0.00 0.00 86 1016.6
20260502212905 16 96 1.6 12.9 0.00 0.00 0.00 87 1016.7
20260502212405 16 94 8.0 14.5 0.00 0.00 0.00 87 1016.7
20260502211906 16 124 4.8 11.3 0.00 0.00 0.00 87 1016.6
20260502211406 16 101 4.8 11.3 0.00 0.00 0.00 88 1016.6
20260502210904 16 92 6.4 16.1 0.00 0.00 0.00 88 1016.5
20260502210405 16 96 1.6 9.7 0.00 0.00 0.00 88 1016.4
20260502205905 16 165 4.8 11.3 0.00 0.00 0.00 88 1016.4
20260502205405 16 135 4.8 16.1 0.00 0.00 0.00 88 1016.4
20260502204904 16 156 1.6 12.9 0.00 0.00 0.00 88 1016.4
20260502204405 16 129 4.8 11.3 0.00 0.00 0.00 87 1016.3
20260502203904 16 136 1.6 9.7 0.00 0.00 0.00 87 1016.2
20260502203404 16 137 6.4 14.5 0.00 0.00 0.00 86 1016.2
20260502202905 17 135 4.8 11.3 0.00 0.00 0.00 86 1016.2
20260502201904 17 140 3.2 9.7 0.00 0.00 0.00 85 1016.1
20260502201405 17 136 1.6 9.7 0.00 0.00 0.00 85 1016.1
20260502200905 17 144 3.2 8.0 0.00 0.00 0.00 85 1016.1
20260502200405 17 151 1.6 9.7 0.00 0.00 0.00 85 1016.0
20260502195904 17 143 3.2 8.0 0.00 0.00 0.00 84 1016.1
20260502195408 17 125 3.2 11.3 0.00 0.00 0.00 83 1015.9
20260502194904 17 113 1.6 8.0 0.00 0.00 0.00 83 1015.9
20260502193904 17 88 0.0 8.0 0.00 0.00 0.00 82 1015.8
20260502193405 17 61 3.2 8.0 0.00 0.00 0.00 81 1015.7
20260502192408 18 102 0.0 4.8 0.00 0.00 0.00 78 1015.6
20260502191907 18 105 1.6 4.8 0.00 0.00 0.00 77 1015.6
20260502191407 18 108 0.0 4.8 0.00 0.00 0.00 76 1015.4
20260502190906 18 108 1.6 4.8 0.00 0.00 0.00 75 1015.4
20260502190407 18 108 0.0 1.6 0.00 0.00 0.00 75 1015.5
20260502185906 18 108 0.0 4.8 0.00 0.00 0.00 75 1015.5
20260502184906 18 108 0.0 4.8 0.00 0.00 0.00 75 1015.5
20260502184407 18 108 0.0 1.6 0.00 0.00 0.00 74 1015.4
20260502183906 18 108 0.0 9.7 0.00 0.00 0.00 74 1015.5
20260502183407 18 108 0.0 4.8 0.00 0.00 0.00 74 1015.5
20260502182907 18 108 3.2 4.8 0.00 0.00 0.00 74 1015.5
20260502181907 18 119 1.6 8.0 0.00 0.00 0.00 73 1015.6
20260502181407 18 128 3.2 9.7 0.00 0.00 0.00 73 1015.7
20260502180907 19 71 3.2 11.3 0.00 0.00 0.00 73 1015.6
20260502163912 19 84 1.6 12.9 0.00 0.00 0.00 71 1016.2
20260502162407 19 133 3.2 9.7 0.00 0.00 0.00 72 1016.3
20260502161908 19 142 8.0 14.5 0.00 0.00 0.00 73 1016.4
20260502161407 18 152 4.8 12.9 0.00 0.00 0.00 75 1016.3
20260502160907 18 98 1.6 9.7 0.00 0.00 0.00 78 1016.4
20260502160407 18 124 1.6 12.9 0.00 0.00 0.00 77 1016.4
20260502151907 17 135 8.0 14.5 0.00 0.00 0.00 82 1017.0
20260502151406 18 124 8.0 11.3 0.00 0.00 0.00 79 1017.0
20260502150906 18 120 4.8 14.5 0.00 0.00 0.00 77 1017.1
20260502150406 18 126 8.0 12.9 0.00 0.00 0.00 75 1017.1
20260502130407 19 82 9.7 19.3 0.00 0.00 0.00 66 1017.8
20260502123407 20 86 4.8 19.3 0.00 0.00 0.00 60 1017.7
20260502122906 20 93 9.7 16.1 0.00 0.00 0.00 59 1017.8
20260502121407 20 116 8.0 16.1 0.00 0.00 0.00 57 1017.8
20260502120906 20 113 8.0 19.3 0.00 0.00 0.00 57 1017.8
20260502120407 20 91 4.8 11.3 0.00 0.00 0.00 58 1017.9
20260502115406 20 94 4.8 11.3 0.00 0.00 0.00 56 1018.0
20260502113406 20 61 4.8 14.5 0.00 0.00 0.00 54 1018.2
20260502112906 20 93 3.2 9.7 0.00 0.00 0.00 56 1018.1
20260502112406 20 127 6.4 11.3 0.00 0.00 0.00 55 1018.1
20260502111906 20 46 0.0 1.6 0.00 0.00 0.00 55 1018.1
20260502111406 20 45 9.7 16.1 0.00 0.00 0.00 54 1018.2
20260502110906 20 110 11.3 16.1 0.00 0.00 0.00 55 1018.3
20260502110406 20 107 4.8 14.5 0.00 0.00 0.00 57 1018.3
20260502105906 20 53 3.2 9.7 0.00 0.00 0.00 57 1018.3
20260502105406 20 47 4.8 12.9 0.00 0.00 0.00 58 1018.3
20260502104907 19 55 8.0 14.5 0.00 0.00 0.00 58 1018.2
20260502104407 19 40 1.6 11.3 0.00 0.00 0.00 57 1018.3
20260502103906 19 83 4.8 12.9 0.00 0.00 0.00 58 1018.3
20260502103406 19 49 1.6 9.7 0.00 0.00 0.00 57 1018.3
20260502102906 20 91 4.8 14.5 0.00 0.00 0.00 57 1018.4
20260502102407 19 86 8.0 12.9 0.00 0.00 0.00 58 1018.3
20260502101906 19 79 8.0 12.9 0.00 0.00 0.00 57 1018.4
20260502101406 19 63 1.6 14.5 0.00 0.00 0.00 58 1018.3
20260502100907 19 125 4.8 12.9 0.00 0.00 0.00 59 1018.3
20260502100406 18 288 0.0 1.6 0.00 0.00 0.00 63 1018.3
20260502090906 17 107 1.6 4.8 0.00 0.00 0.00 73 1018.4
20260502071406 13 325 0.0 1.6 0.00 0.00 0.00 86 1018.3
20260502070906 13 325 0.0 0.0 0.00 0.00 0.00 86 1018.4
20260502070406 13 325 0.0 0.0 0.00 0.00 0.00 86 1018.3
20260502065907 13 325 0.0 3.2 0.00 0.00 0.00 87 1018.3
20260502065405 13 325 0.0 0.0 0.00 0.00 0.00 88 1018.2
20260502064907 13 325 0.0 0.0 0.00 0.00 0.00 88 1018.2
20260502064406 13 325 0.0 0.0 0.00 0.00 0.00 88 1018.2
20260502063906 13 325 0.0 0.0 0.00 0.00 0.00 87 1018.3
20260502062906 13 325 0.0 0.0 0.00 0.00 0.00 87 1018.1
20260502062406 13 325 0.0 4.8 0.00 0.00 0.00 86 1018.1
20260502061406 13 324 0.0 3.2 0.00 0.00 0.00 86 1017.9
20260502060406 13 324 0.0 0.0 0.00 0.00 0.00 86 1017.6
20260502055406 13 324 0.0 1.6 0.00 0.00 0.00 87 1017.7
20260502054906 13 324 0.0 0.0 0.00 0.00 0.00 87 1017.6
20260502054405 13 324 0.0 0.0 0.00 0.00 0.00 88 1017.6
20260502053906 13 324 0.0 0.0 0.00 0.00 0.00 88 1017.6
20260502053406 13 324 0.0 0.0 0.00 0.00 0.00 88 1017.7
20260502052906 13 324 0.0 0.0 0.00 0.00 0.00 88 1017.8
20260502052406 13 324 0.0 0.0 0.00 0.00 0.00 88 1017.9
20260502050906 13 324 3.2 4.8 0.00 0.00 0.00 85 1017.7
20260502045406 13 244 4.8 9.7 0.00 0.00 0.00 84 1017.6
20260502044906 13 284 3.2 4.8 0.00 0.00 0.00 83 1017.7
20260502044406 13 199 0.0 0.0 0.00 0.00 0.00 84 1017.9
20260502043906 13 199 0.0 3.2 0.00 0.00 0.00 84 1018.0
20260502043406 13 199 3.2 4.8 0.00 0.00 0.00 83 1017.9
20260502042906 13 195 3.2 8.0 0.00 0.00 0.00 83 1017.9
20260502040906 13 92 1.6 4.8 0.00 0.00 0.00 84 1018.3
20260502040406 13 92 0.0 1.6 0.00 0.00 0.00 84 1018.1
20260502035907 13 92 0.0 0.0 0.00 0.00 0.00 85 1018.1
20260502035408 13 92 0.0 0.0 0.00 0.00 0.00 85 1018.1
20260502034906 13 92 0.0 0.0 0.00 0.00 0.00 84 1018.2
20260502034406 13 92 0.0 0.0 0.00 0.00 0.00 84 1018.3
20260502033406 13 26 4.8 9.7 0.00 0.00 0.00 83 1018.3
20260502032906 13 144 1.6 8.0 0.00 0.00 0.00 83 1018.1
20260502032407 13 144 1.6 4.8 0.00 0.00 0.00 83 1018.0
20260502030406 14 144 1.6 4.8 0.00 0.00 0.00 82 1018.2
20260502024406 14 36 0.0 0.0 0.00 0.00 0.00 81 1018.1
20260502023906 14 36 3.2 9.7 0.00 0.00 0.00 81 1018.4
20260502023406 14 102 3.2 12.9 0.00 0.00 0.00 81 1018.2
20260502022406 14 45 0.0 8.0 0.00 0.00 0.00 81 1018.2
20260502021905 14 40 0.0 8.0 0.00 0.00 0.00 80 1018.5
20260502021406 14 140 0.0 0.0 0.00 0.00 0.00 80 1018.5
20260502020406 15 140 0.0 4.8 0.00 0.00 0.00 79 1018.2
20260502015906 15 140 0.0 0.0 0.00 0.00 0.00 80 1018.3
20260502015406 14 140 3.2 8.0 0.00 0.00 0.00 80 1018.3
20260502014906 14 140 0.0 11.3 0.00 0.00 0.00 81 1018.5
20260502013906 14 101 1.6 8.0 0.00 0.00 0.00 81 1018.7
20260502013406 14 101 0.0 9.7 0.00 0.00 0.00 80 1018.8
20260502012906 15 101 1.6 8.0 0.00 0.00 0.00 80 1018.8
20260502012406 15 101 1.6 8.0 0.00 0.00 0.00 80 1018.7
20260502011906 15 101 0.0 3.2 0.00 0.00 0.00 80 1018.6
20260502011406 15 101 3.2 8.0 0.00 0.00 0.00 80 1018.8
20260502010906 15 103 4.8 9.7 0.00 0.00 0.00 80 1018.8
20260502010406 15 126 0.0 11.3 0.00 0.00 0.00 80 1018.8
20260502005406 15 92 1.6 9.7 0.00 0.00 0.00 80 1018.9